Wind_Speed
16 17 22 29 32 33 34 32 29 29 29 28 25 23 21 19 17 14 12 9 7 6 5 4 3 4 4 3 3 4 4 6 8 9 10 11 11 12 12 11 11 11 11 11 11 12 12 12 14 15 13 12 13 12 12 12 13 13 12 9 9 11 12 12 11 10 12 13 11 10 9 8 8 7 6 7 6 6 7 7 7 8 9 10 11
17 18 24 30 32 33 34 33 31 29 28 26 24 22 21 19 17 15 13 10 9 7 5 4 3 3 3 3 2 3 4 5 7 9 10 10 11 11 11 11 11 12 11 11 11 11 12 12 13 14 13 13 13 13 13 14 14 12 10 9 11 12 11 10 12 12 11 12 11 10 10 8 8 8 6 6 6 7 7 7 8 9 10 11 11
17 20 25 31 33 34 34 34 32 30 28 26 24 22 21 20 18 16 14 12 10 8 6 4 2 1 2 2 2 2 4 5 6 9 10 10 10 11 11 11 12 12 11 11 11 11 11 12 14 14 13 14 15 15 15 15 14 11 9 9 12 12 16 14 15 18 12 13 12 10 10 9 7 7 6 6 6 7 8 9 10 10 11 12 12
19 23 27 31 35 35 35 35 34 32 30 27 25 23 22 21 18 16 15 13 11 9 7 5 4 1 0 1 1 2 4 5 6 8 11 11 11 12 12 12 13 13 12 12 13 13 11 12 14 14 14 15 15 16 16 16 14 10 10 12 13 14 20 20 13 11 10 13 13 10 10 9 7 7 7 7 7 8 8 9 10 11 12 13 13
22 26 29 32 35 35 35 36 36 33 31 29 26 24 23 21 19 18 17 15 12 10 9 7 6 4 3 2 1 2 4 6 7 9 12 13 13 13 13 14 15 14 13 14 15 14 12 12 13 13 14 15 16 17 17 15 14 12 11 14 15 16 20 21 17 11 7 10 11 10 10 10 8 7 8 8 9 10 10 11 12 13 13 13 13
25 27 27 30 34 34 34 35 34 32 31 29 26 25 24 23 21 20 18 16 14 12 11 9 8 7 5 4 4 4 4 6 8 10 12 14 15 15 14 15 16 14 14 16 16 15 14 14 14 13 13 13 15 17 17 16 16 14 13 15 15 15 17 19 19 16 11 10 9 9 11 12 10 8 9 10 10 11 11 11 12 12 13 14 14
27 24 22 26 31 32 32 31 30 32 32 29 27 26 25 24 22 20 19 17 16 14 13 11 10 8 7 6 7 7 6 7 9 10 13 15 16 17 17 16 16 15 15 17 16 15 16 17 16 15 14 12 14 16 17 17 17 16 17 16 13 12 16 18 19 17 15 13 12 11 12 13 11 10 10 10 10 12 12 10 11 12 14 14 16
26 26 24 28 31 31 31 31 31 32 33 30 28 26 24 23 21 20 20 19 18 16 15 13 11 9 8 8 9 9 9 9 9 9 14 17 17 17 17 17 18 16 17 20 19 17 17 16 16 18 17 15 16 17 17 18 18 18 19 17 15 15 17 18 18 17 15 14 13 13 14 14 14 14 13 12 11 12 12 11 12 13 14 16 18
27 27 27 29 30 31 33 35 35 34 33 31 28 27 25 23 22 22 22 21 20 19 17 15 13 11 11 10 10 11 10 10 10 10 14 17 18 17 16 16 17 17 17 19 19 16 15 14 16 19 20 19 18 19 19 19 19 19 20 19 19 20 18 16 16 16 15 15 15 15 16 17 17 17 16 15 13 13 13 13 14 14 13 15 17
29 28 29 30 30 32 34 35 36 35 32 30 29 27 25 23 23 24 23 22 22 20 18 16 14 13 13 12 12 12 11 11 10 11 13 16 17 18 17 16 16 16 16 16 16 15 14 16 18 20 20 20 21 22 22 21 21 21 21 20 20 21 19 17 17 17 17 17 17 17 18 19 18 17 17 17 16 16 17 17 17 16 15 16 17
30 31 31 30 30 32 34 34 33 33 32 31 30 28 27 25 24 24 24 24 23 22 19 17 16 15 15 14 13 12 12 11 11 12 13 15 17 19 19 18 18 19 18 16 15 16 16 18 19 20 21 23 24 25 25 24 24 23 23 22 21 21 20 19 18 18 19 19 19 19 19 19 18 18 18 19 18 18 19 19 20 20 20 21 21
29 31 31 31 31 33 35 34 33 33 32 31 30 29 29 29 28 26 25 24 24 22 21 19 18 18 17 15 14 13 12 12 11 12 14 15 17 18 18 19 20 21 21 19 18 19 20 21 21 21 23 24 25 26 27 27 26 25 25 23 22 22 22 21 20 20 20 20 20 20 20 20 20 21 21 22 22 23 23 24 25 25 25 26 26
23 25 27 30 31 32 33 33 31 30 30 29 29 30 30 30 30 29 27 26 26 25 23 21 20 19 18 17 15 13 13 12 11 12 14 15 16 17 18 20 20 21 22 22 23 22 22 23 23 23 24 25 25 26 28 28 27 26 26 25 25 25 25 24 23 23 23 24 23 22 22 23 24 24 25 26 26 27 28 28 29 30 30 31 30
20 21 22 24 26 27 28 29 30 29 29 27 27 28 29 30 32 31 30 30 29 28 27 26 25 23 20 19 17 15 13 12 12 13 14 16 16 17 19 19 18 19 21 22 24 23 20 18 20 22 22 24 26 27 28 28 28 27 27 27 27 27 27 26 26 26 27 27 27 26 26 27 28 28 29 30 30 30 31 32 32 34 34 34 33
20 20 20 21 22 23 23 25 26 27 27 26 26 28 29 30 33 32 31 31 31 31 31 30 28 25 23 22 19 16 14 13 13 14 15 17 16 17 18 18 17 18 19 20 22 23 20 18 19 21 21 23 26 27 28 28 28 27 28 28 28 28 29 29 29 29 29 30 30 30 30 31 32 32 32 33 34 33 33 34 35 35 35 35 35
18 19 21 22 23 23 23 24 24 24 25 26 27 28 28 31 32 32 31 32 32 33 32 30 27 23 20 20 18 15 15 15 15 15 16 18 18 17 17 17 17 18 19 19 21 23 24 23 23 23 25 25 25 26 28 29 29 29 29 29 30 30 31 31 31 32 32 32 33 33 34 34 35 35 35 36 37 36 36 36 37 36 35 36 36
18 20 22 23 23 22 21 21 21 22 23 25 26 25 27 30 31 30 30 31 31 32 31 28 26 22 19 18 17 16 16 16 17 17 17 19 19 18 18 18 17 17 17 18 20 22 24 26 26 27 28 27 26 27 28 29 30 31 31 31 32 33 33 34 35 35 35 35 36 38 38 38 38 38 38 37 38 38 38 39 39 38 36 37 37
18 19 17 16 17 16 15 15 17 19 21 24 26 26 28 30 29 25 24 24 25 27 27 25 25 24 21 20 18 18 17 17 17 18 18 20 21 20 20 19 17 17 18 19 19 21 23 26 29 30 30 30 30 30 30 31 32 32 33 34 35 35 36 37 39 39 39 38 39 40 41 41 41 41 40 39 39 39 39 41 41 40 38 38 40
14 15 13 12 13 13 13 15 17 19 20 21 22 23 23 22 20 17 16 16 16 17 19 20 20 20 21 20 18 16 16 17 18 18 18 20 22 22 23 23 21 20 22 22 22 24 25 25 28 30 31 31 31 32 32 33 33 34 35 36 37 38 39 40 41 42 42 41 40 40 41 41 42 43 42 41 40 40 40 40 40 40 40 40 42
11 12 12 11 10 10 11 12 12 14 15 15 15 14 13 12 12 12 11 11 11 11 11 13 14 16 17 18 17 15 14 15 17 18 18 20 22 23 25 26 25 25 25 26 26 27 29 29 29 30 31 32 32 34 34 35 36 37 37 38 40 41 42 42 42 43 43 43 42 42 41 41 41 41 40 39 41 40 39 39 39 39 40 41 43
12 11 10 8 7 6 7 7 7 8 10 11 11 9 7 7 9 10 11 11 11 10 9 9 9 10 11 13 14 15 15 15 16 18 19 20 22 24 25 26 27 27 28 28 28 29 33 35 33 30 31 33 34 35 36 37 38 39 39 40 41 42 43 43 43 43 43 43 44 44 43 41 40 40 39 40 41 40 38 38 38 39 40 43 45
10 9 9 8 7 7 7 7 8 8 9 10 10 8 6 6 7 9 10 10 9 8 7 7 7 7 8 10 12 15 16 17 18 20 21 22 23 25 26 27 29 28 28 28 29 30 34 37 35 32 32 35 36 37 38 39 40 40 40 40 41 43 44 45 45 45 44 44 44 45 44 43 42 42 41 42 43 43 41 42 42 41 42 45 47
8 8 8 8 7 7 8 8 8 9 8 7 8 8 7 6 6 6 7 7 7 6 6 7 7 8 10 11 12 14 15 16 18 19 21 24 25 26 27 28 29 29 29 29 31 31 34 37 37 34 34 36 37 38 40 41 42 42 42 43 44 45 47 48 49 48 48 47 48 48 48 47 48 47 47 49 50 51 51 49 47 43 43 45 48
5 5 5 6 6 6 6 6 6 6 6 5 5 5 5 5 5 6 6 7 8 8 9 10 10 11 13 13 14 14 14 15 16 16 18 20 23 26 27 28 29 31 31 32 33 34 36 38 38 37 37 38 39 39 41 42 43 44 45 46 47 48 50 51 51 51 52 53 54 54 54 54 54 54 54 54 54 52 51 50 48 45 44 44 45
3 4 4 5 5 5 5 5 4 5 5 5 6 6 6 6 7 8 9 10 11 11 12 13 13 14 15 15 15 16 16 17 17 17 17 18 20 22 25 27 28 30 32 33 35 35 36 36 37 38 39 40 40 40 41 43 43 44 45 47 48 50 51 51 52 53 54 54 55 56 56 56 55 54 53 53 52 50 50 51 51 50 47 45 45
3 3 4 4 5 6 7 7 7 7 7 8 8 8 8 9 10 11 12 13 13 13 14 14 15 16 16 16 17 17 18 19 18 17 18 20 21 22 24 25 27 28 30 31 32 33 34 34 36 37 38 39 40 41 42 43 43 43 44 45 47 48 48 48 49 49 50 50 51 51 52 52 52 51 50 50 49 46 46 48 50 49 47 47 47
4 4 4 4 5 5 6 7 7 8 8 9 9 10 10 11 11 12 13 13 14 14 15 15 16 16 17 18 18 19 21 22 19 18 20 22 23 24 25 26 27 28 30 31 31 32 33 34 35 36 37 38 39 40 41 42 43 43 44 44 45 45 45 45 45 46 46 47 47 48 48 48 49 48 48 47 44 39 38 43 46 45 45 46 46
6 6 6 6 6 7 7 8 8 9 9 9 10 11 11 12 12 13 13 13 14 15 15 16 16 16 17 18 18 20 22 22 20 20 23 24 24 26 27 27 28 29 29 30 31 32 32 33 34 35 36 37 38 39 40 40 41 41 42 42 42 42 42 42 42 43 44 44 44 44 44 44 44 44 44 44 42 39 39 42 44 43 43 43 44
10 10 10 9 9 10 10 10 10 10 10 11 11 11 12 12 12 13 13 14 14 15 16 16 17 18 19 19 19 21 23 23 22 23 24 24 25 26 27 27 28 29 29 30 30 31 31 32 32 33 33 34 35 35 36 36 37 38 38 38 39 39 39 40 40 42 43 42 42 42 42 42 43 44 43 43 43 43 43 44 44 42 41 40 41
14 14 14 14 13 13 12 12 11 11 11 11 11 12 12 13 13 14 14 15 16 17 17 18 18 19 20 20 20 21 22 23 23 23 23 24 24 24 25 25 25 26 27 27 27 28 28 29 29 30 30 31 31 32 32 33 34 34 35 36 36 36 37 37 37 39 40 40 40 40 40 41 43 43 44 45 45 45 46 46 45 42 40 40 40
14 14 15 15 15 14 14 14 13 13 12 12 12 12 12 13 13 14 15 15 16 17 18 18 19 19 20 20 20 20 21 22 22 22 22 22 22 22 22 22 22 22 22 23 24 24 25 25 26 27 28 28 29 29 30 31 31 32 33 33 33 33 33 33 33 34 35 36 36 35 35 36 38 39 41 43 44 45 46 46 45 44 42 41 41
14 14 14 14 14 15 15 15 14 14 14 14 13 13 14 14 14 15 15 16 17 17 18 18 18 18 19 19 19 19 19 19 19 19 19 19 19 19 19 19 20 20 20 21 22 23 24 25 25 26 27 27 28 29 29 30 30 30 30 30 30 29 29 30 31 31 31 31 31 32 32 32 32 33 35 37 39 41 43 43 42 41 41 40 40
13 14 14 14 14 14 14 14 14 14 15 15 15 15 15 15 15 15 16 16 16 16 16 16 16 16 17 17 16 16 16 16 16 16 16 16 17 17 18 18 19 20 20 21 21 22 23 24 25 26 27 27 28 29 29 29 29 28 28 28 28 27 28 28 28 29 29 29 29 30 31 31 31 31 31 33 35 37 38 38 37 36 36 36 36
12 13 13 13 13 13 13 13 13 13 14 14 14 14 15 14 14 14 14 14 14 14 14 14 14 14 14 14 14 14 14 14 14 15 15 16 17 17 17 18 18 19 20 20 21 22 23 24 25 25 26 26 27 27 28 28 27 27 27 27 26 26 27 28 28 28 29 29 29 30 30 31 31 31 31 32 32 34 35 35 33 31 32 33 33
12 12 12 12 12 12 12 12 12 13 13 13 13 13 12 12 11 11 11 11 11 12 12 12 12 13 13 13 13 13 13 14 14 14 15 15 16 16 17 17 18 18 19 20 21 22 22 23 23 23 23 24 24 25 25 26 26 26 26 26 26 26 27 28 29 30 30 31 31 31 31 31 31 31 31 31 32 33 34 34 32 31 31 32 32
10 10 10 11 11 11 10 10 11 11 11 11 11 10 10 9 9 8 8 9 9 10 10 10 10 11 11 11 11 11 11 12 12 12 13 14 14 15 16 16 17 18 19 20 20 21 21 21 21 20 21 21 22 22 23 24 24 25 26 26 26 27 27 28 29 30 30 31 30 30 30 30 30 29 30 30 30 30 30 31 30 30 31 32 32
9 10 9 9 9 9 8 8 9 9 9 9 8 8 8 8 7 7 7 7 7 8 8 8 7 7 7 7 8 8 9 9 10 11 12 13 14 15 15 16 17 17 18 19 18 18 18 19 19 19 19 20 20 21 22 23 24 25 26 26 27 27 27 27 27 27 27 27 27 26 27 27 28 28 27 27 26 26 26 27 27 26 28 31 31
9 9 9 8 8 8 7 7 7 7 7 7 7 7 7 7 7 7 7 6 7 7 7 7 6 6 6 6 7 8 9 10 11 12 12 13 14 14 15 15 16 16 16 16 16 16 17 17 18 18 19 20 20 21 22 23 24 25 25 26 26 26 24 23 23 22 23 23 23 24 24 25 25 24 24 23 23 23 25 26 25 25 26 28 28
10 10 9 8 8 8 7 7 7 7 8 8 7 7 8 8 8 8 8 8 8 8 8 7 7 7 7 7 8 9 10 11 12 13 13 14 15 15 15 15 15 15 15 16 16 17 18 18 19 19 19 20 21 21 21 22 22 23 23 23 22 21 20 19 19 19 20 21 22 21 21 21 20 20 20 20 20 22 24 24 23 23 24 24 25
12 12 11 9 9 8 8 8 8 8 8 8 8 8 8 8 9 9 9 9 9 9 9 9 9 9 9 9 9 10 11 12 13 14 14 14 15 16 16 16 16 16 16 17 18 19 19 19 18 18 18 19 19 19 19 20 20 21 20 19 18 17 17 17 17 18 18 18 17 16 15 15 16 15 15 15 15 17 18 18 18 18 19 19 20
12 13 12 10 10 9 8 8 8 8 8 9 9 9 9 9 9 10 10 10 10 10 10 10 11 11 11 11 11 12 13 13 14 14 15 15 15 16 16 16 15 16 17 18 18 18 17 16 16 16 16 16 16 17 17 18 18 18 17 15 14 14 14 14 14 14 14 13 13 13 13 14 14 13 12 11 11 12 13 14 15 16 16 16 15
11 12 12 11 10 9 8 7 7 8 9 9 9 9 10 10 10 10 11 11 11 11 12 12 12 12 12 13 13 13 13 14 14 14 14 14 15 15 14 14 15 16 17 17 16 14 13 12 12 13 13 14 14 15 16 16 16 16 15 14 12 11 11 10 10 10 10 10 11 11 12 12 12 12 12 12 12 12 12 12 13 12 12 11 11
10 10 13 13 11 10 9 9 8 9 9 9 10 10 10 10 10 11 12 12 12 12 12 13 13 13 13 13 13 13 13 13 13 13 14 14 14 14 13 13 14 15 14 13 11 10 9 9 10 11 11 12 13 13 14 14 15 15 14 13 12 10 9 8 8 8 9 9 10 10 11 11 11 12 12 12 12 13 12 12 11 10 9 9 9
10 10 11 13 12 10 9 9 9 9 9 9 10 10 10 9 10 11 12 12 11 11 11 12 12 12 12 11 11 11 11 12 12 12 13 13 13 13 12 12 12 11 10 9 8 8 7 8 8 9 10 11 11 11 12 13 13 14 14 13 12 11 11 10 10 9 9 9 9 10 10 10 11 12 12 13 13 13 12 11 9 8 7 6 6
11 9 9 11 12 10 8 8 10 10 9 9 10 10 10 9 9 9 10 11 10 10 10 10 10 10 9 9 10 10 10 11 11 11 12 12 12 11 11 10 8 7 6 7 7 7 7 7 8 9 10 10 11 11 12 13 14 14 14 14 14 13 12 12 11 10 10 9 9 10 10 11 11 12 13 13 12 11 9 8 6 5 3 3 4
11 10 10 11 12 11 9 10 10 11 10 10 10 9 8 8 8 9 10 10 9 8 8 8 7 8 8 8 9 9 10 10 10 11 11 10 9 9 8 6 5 5 5 5 6 7 8 9 9 10 10 11 12 13 14 16 16 17 16 15 15 15 14 13 12 11 11 10 10 10 10 10 11 11 12 11 9 7 5 3 2 1 1 3 4
11 11 11 12 12 12 12 11 11 11 11 10 9 8 7 7 8 9 10 8 7 6 6 6 7 7 7 7 8 9 10 10 10 10 9 8 7 7 6 5 4 4 5 5 6 8 9 10 10 11 11 12 14 15 16 16 17 17 17 16 15 14 13 12 11 10 10 11 10 10 8 8 8 8 7 6 4 3 1 0 1 1 2 2 3
11 12 12 12 13 12 11 10 10 10 11 10 8 7 7 8 9 9 8 7 6 6 6 6 6 6 6 7 8 8 9 9 9 9 8 7 6 6 6 6 5 5 5 6 7 9 10 11 12 13 13 14 15 15 16 16 16 16 15 15 13 12 11 10 9 9 9 9 9 8 6 5 4 4 3 2 2 1 0 1 1 2 2 2 2
10 11 11 12 12 12 11 9 7 8 9 9 8 7 7 8 8 8 7 6 6 6 6 6 6 6 6 6 7 7 8 9 8 8 7 7 6 6 7 7 8 8 7 8 9 10 11 12 13 14 14 14 15 15 15 15 14 14 13 12 11 11 10 9 9 9 9 8 7 7 6 5 4 3 2 2 2 2 1 1 1 1 1 1 0
11 11 11 12 12 13 13 9 6 5 7 9 8 7 8 8 8 7 7 6 6 6 6 6 5 5 5 5 6 6 7 7 7 6 6 7 7 8 9 9 9 9 9 9 10 11 12 12 13 13 13 14 14 14 14 13 13 12 12 11 10 10 9 10 10 9 9 8 8 7 6 5 4 4 3 3 3 3 3 3 3 3 2 2 1
11 11 12 13 14 15 15 11 7 6 7 9 8 7 8 8 8 7 6 6 6 6 6 6 5 5 5 4 4 4 4 4 5 5 6 7 8 9 10 10 10 10 10 10 11 11 12 12 12 12 12 12 12 12 12 11 11 11 10 10 10 10 10 10 9 8 8 7 6 6 5 5 5 5 4 4 4 4 4 4 4 3 3 2 2
Wind_Direction
245 235 218 204 200 198 193 191 188 185 181 177 181 185 185 187 187 184 183 183 184 188 182 171 154 135 131 138 161 190 206 214 213 213 217 216 211 209 210 211 216 220 226 229 230 228 223 220 224 229 227 217 213 214 211 210 218 225 214 202 225 221 182 178 206 205 200 202 195 201 211 212 226 240 251 262 269 276 281 285 289 294 299 300 302
240 231 217 206 204 201 195 191 188 184 181 180 184 189 190 191 193 192 193 195 200 203 200 191 163 123 112 120 150 198 216 224 219 215 218 217 209 208 209 211 215 219 220 224 226 225 219 215 218 222 218 211 209 209 209 211 213 218 215 215 235 223 171 177 230 239 221 208 202 208 215 220 235 241 251 268 279 288 291 294 296 297 299 299 300
230 220 210 206 205 202 195 190 189 185 183 184 189 193 196 197 198 199 202 206 210 214 218 223 208 136 111 114 145 208 222 229 227 217 215 214 210 209 210 212 215 217 218 220 222 221 217 215 220 223 215 208 210 210 212 216 214 210 205 211 231 211 161 167 238 257 240 209 206 216 222 224 235 247 256 265 279 290 291 294 297 297 301 300 298
217 210 203 201 201 200 195 192 190 186 184 188 193 197 199 202 203 205 210 213 217 224 230 239 246 239 201 113 161 222 232 235 232 222 215 211 209 209 209 212 216 218 219 219 220 220 218 218 222 224 218 210 210 215 219 219 214 206 203 213 224 206 174 171 208 248 249 228 216 214 226 230 230 245 262 267 271 278 282 287 291 293 296 296 296
217 212 204 201 200 201 201 195 187 184 187 191 196 200 202 205 206 208 213 217 221 229 234 242 251 255 267 290 266 235 238 243 237 224 216 214 212 210 209 213 216 216 219 222 223 220 219 224 226 226 224 216 211 218 225 224 217 212 212 219 224 215 198 192 199 206 223 238 224 203 212 227 228 237 254 264 269 273 279 286 289 292 293 291 290
213 213 212 212 208 204 200 191 181 183 190 193 197 202 204 207 210 209 211 216 222 228 233 240 248 257 273 285 273 252 245 247 244 229 219 216 216 213 212 215 215 214 221 228 228 224 223 228 231 232 234 223 211 217 226 227 223 219 217 218 221 223 216 210 216 217 208 212 220 217 223 227 226 235 245 253 265 274 278 279 278 278 276 273 278
199 198 202 205 201 196 195 191 186 189 194 196 201 204 206 210 211 210 213 219 223 228 233 240 245 253 268 280 281 280 271 256 249 235 222 218 218 217 217 218 217 216 224 231 229 223 222 227 229 233 239 232 217 217 222 226 227 225 224 216 209 226 233 222 223 231 228 218 217 226 238 237 235 249 251 243 252 263 265 264 267 273 273 274 283
189 187 191 194 193 195 198 198 198 199 200 202 206 208 212 214 211 212 217 222 226 229 233 237 241 247 258 272 282 289 285 274 269 249 227 218 216 217 220 222 220 218 225 233 234 227 224 226 228 229 230 230 225 221 218 224 228 228 229 220 202 215 235 229 222 232 242 241 233 234 247 252 253 258 252 241 244 251 252 253 257 265 275 284 291
191 188 189 194 199 203 203 202 202 204 204 207 210 212 215 215 212 215 219 222 227 230 232 234 236 241 250 263 276 284 287 286 285 267 241 228 219 215 217 222 223 222 228 236 241 239 233 231 230 229 227 225 226 225 221 223 224 223 226 224 215 220 234 235 233 238 245 249 248 247 251 256 260 260 254 252 256 256 256 259 259 260 267 276 281
195 190 190 196 202 206 207 205 202 202 204 208 214 216 216 213 213 218 222 225 228 231 233 234 235 240 248 258 270 280 284 284 279 262 247 239 232 223 217 214 216 219 225 233 237 236 233 232 233 234 231 226 226 227 224 224 225 224 224 225 225 230 238 240 242 245 247 249 252 252 252 258 265 266 266 270 273 270 268 271 273 275 278 278 276
196 192 192 197 203 208 211 208 203 202 205 211 216 220 221 218 217 219 221 225 229 232 234 234 236 241 248 257 269 280 281 279 272 256 243 237 235 233 227 218 213 214 217 221 224 225 226 229 233 235 232 226 224 225 225 224 225 227 228 229 230 233 238 243 245 247 250 253 255 257 261 266 270 270 273 277 280 279 277 277 279 280 281 282 280
198 197 197 199 204 209 213 211 208 206 209 216 222 226 228 228 227 227 227 227 228 228 230 232 235 241 248 256 267 278 280 277 269 254 243 236 234 237 235 229 222 219 218 217 219 223 225 227 231 233 231 228 226 225 226 226 228 230 231 234 237 238 241 246 250 252 254 256 259 262 266 270 272 274 276 278 280 281 280 282 285 284 282 282 281
203 205 205 208 212 215 215 214 213 211 214 222 229 230 230 230 231 232 233 234 232 230 229 231 234 240 247 254 262 274 278 276 267 252 242 239 237 236 236 235 229 223 220 218 219 223 228 231 233 233 232 232 230 227 227 227 229 233 235 237 241 244 246 250 253 255 256 258 261 264 265 268 270 273 276 277 279 280 282 285 287 286 284 284 283
203 206 209 214 219 220 219 216 213 213 217 224 231 233 231 229 230 230 231 234 236 235 234 234 235 240 246 252 261 271 274 270 264 252 240 237 236 233 235 237 236 231 227 224 222 225 229 234 236 234 233 232 230 227 227 228 230 233 236 240 243 247 251 254 256 258 258 260 263 265 266 268 269 272 276 277 279 282 285 287 286 284 285 285 284
204 207 208 212 216 217 218 215 212 215 219 222 227 229 229 230 232 231 232 235 237 238 238 238 239 241 245 251 259 269 271 266 259 250 240 236 234 231 234 238 240 238 236 232 229 227 227 230 231 231 232 231 229 227 228 231 234 236 239 243 247 250 253 255 257 259 260 260 262 264 266 268 271 274 277 279 281 284 285 285 284 283 284 284 284
209 211 212 212 212 212 216 218 215 216 220 224 226 227 227 230 233 230 229 233 237 238 239 241 243 241 242 248 256 265 270 266 256 247 240 236 233 231 234 238 240 241 239 237 235 232 229 228 229 230 232 233 233 233 233 236 238 242 245 248 252 254 257 259 260 260 260 261 262 263 265 267 269 273 275 277 280 282 282 281 280 280 281 282 281
212 215 214 212 209 207 212 218 218 219 224 226 226 225 224 226 228 227 227 232 239 241 241 245 249 244 239 245 255 262 268 265 253 243 238 235 233 231 232 235 238 240 239 237 238 237 235 233 233 233 236 237 237 237 237 239 241 244 248 251 254 256 259 260 260 259 259 260 262 264 265 265 266 268 270 272 274 276 278 278 278 279 279 278 277
212 205 198 201 207 203 204 213 216 219 222 220 218 220 223 224 226 229 235 241 246 247 246 251 253 248 241 246 254 258 263 262 250 240 237 235 233 231 230 231 233 236 237 235 237 239 238 236 237 238 239 241 241 242 243 244 246 249 252 254 256 259 259 260 262 263 264 264 265 267 268 269 269 269 269 271 272 273 275 277 280 281 279 277 278
202 189 174 182 195 193 196 206 209 208 210 213 215 219 222 225 226 231 239 245 248 249 250 253 253 247 243 247 252 256 261 260 248 240 239 238 236 234 232 232 233 235 237 237 239 242 243 241 242 244 245 245 247 249 250 251 253 254 256 258 259 260 260 262 264 266 268 269 268 268 270 272 273 273 273 272 272 272 273 275 277 279 279 280 282
150 152 152 163 170 169 178 191 195 195 197 199 203 206 207 210 215 221 229 237 242 244 246 246 247 248 247 248 251 255 259 257 247 241 241 243 242 240 239 239 239 240 241 242 243 247 249 247 244 246 250 251 252 253 254 255 256 257 258 259 260 261 263 264 266 267 269 272 271 270 270 271 272 273 273 273 271 269 271 272 273 274 276 277 278
115 119 126 137 148 157 165 170 175 182 182 178 178 181 183 188 201 212 220 225 227 227 227 229 236 245 251 254 256 257 257 255 248 245 246 248 248 247 246 246 245 245 245 246 247 249 253 255 253 252 256 258 258 258 258 258 258 259 260 261 262 264 265 267 268 268 270 272 272 273 273 273 272 272 273 273 271 267 265 268 270 272 272 272 272
102 104 110 119 130 141 146 149 156 164 170 167 157 149 151 160 178 200 210 213 214 216 219 222 226 235 244 252 257 258 257 255 253 251 250 250 252 252 250 249 249 249 250 251 252 252 255 261 262 260 259 259 259 261 262 262 262 262 262 262 263 265 266 267 268 268 268 269 270 271 272 273 274 273 274 275 274 272 271 270 269 269 270 271 273
106 113 122 129 136 143 146 152 159 166 173 169 148 143 155 167 178 197 207 215 222 229 236 240 243 247 250 252 254 255 254 253 253 253 252 251 252 253 252 250 250 251 252 254 256 256 257 262 266 265 261 259 259 260 261 262 262 262 262 263 263 264 265 267 267 267 268 269 270 271 272 274 276 277 278 279 280 282 283 280 275 273 271 270 273
119 129 141 148 152 153 154 160 167 173 180 182 172 174 187 199 210 223 233 240 245 250 255 256 258 258 258 259 260 260 260 259 258 258 258 256 254 253 253 252 252 253 255 256 258 259 260 264 268 270 270 268 266 265 265 264 264 265 266 267 267 268 269 269 270 270 271 272 274 275 276 277 278 279 280 282 283 283 283 281 279 277 273 271 272
169 176 186 191 192 193 194 200 210 215 218 224 228 228 229 235 240 246 252 256 260 263 263 264 265 264 264 265 265 265 266 265 264 265 267 266 263 260 259 258 258 259 260 261 263 264 266 269 271 272 273 273 274 274 273 272 272 272 272 272 272 273 274 274 274 274 275 276 276 277 278 279 279 280 279 279 279 277 275 275 275 275 274 273 272
214 215 218 221 223 224 223 224 229 235 240 244 246 246 247 247 247 249 252 255 258 261 262 264 265 266 267 267 267 268 267 265 264 266 267 267 266 266 265 265 265 265 266 268 269 271 272 273 273 274 274 275 275 275 275 276 276 275 275 275 276 277 277 277 277 276 276 276 276 276 277 278 278 278 277 276 275 273 272 272 273 273 274 274 273
240 244 247 251 251 250 248 246 246 248 249 251 251 251 251 251 251 251 252 253 255 256 258 259 261 263 264 265 266 266 266 266 267 267 264 263 264 264 265 266 267 269 271 272 273 274 274 273 274 274 275 275 275 275 275 276 276 276 277 277 277 278 278 277 277 276 275 275 274 275 275 275 275 276 276 276 276 274 272 272 272 273 274 275 275
260 258 258 260 263 263 262 261 260 258 258 259 258 258 257 256 256 256 256 257 257 257 257 258 261 262 263 265 266 267 268 270 271 269 268 268 268 269 269 270 271 272 273 274 275 275 274 274 274 274 275 275 276 277 277 278 278 279 279 280 280 280 280 280 279 278 277 277 277 276 276 276 276 276 275 276 275 274 272 273 274 275 276 277 276
274 271 269 268 267 266 265 263 262 261 260 261 261 263 263 263 263 263 263 263 264 264 265 265 265 266 267 268 270 272 274 275 275 273 274 275 275 275 275 276 276 277 277 278 278 279 279 279 279 280 280 281 281 282 282 283 283 283 283 284 284 284 284 283 283 282 281 281 280 279 279 277 276 276 276 275 275 274 274 274 275 276 276 275 274
275 275 275 274 274 272 272 271 269 268 267 266 266 267 267 268 269 268 268 268 269 269 270 271 271 271 273 273 273 274 277 278 278 278 278 278 278 279 280 280 281 282 282 282 283 284 284 285 285 286 286 286 286 287 287 287 287 287 287 287 287 287 286 286 285 284 284 284 283 281 280 278 276 275 274 274 273 273 273 274 275 276 276 274 274
269 270 271 271 271 271 270 270 271 271 271 271 271 270 270 270 270 271 270 270 270 271 271 272 272 272 273 274 275 276 277 279 281 282 282 283 284 284 285 286 287 288 288 288 288 288 288 288 288 288 289 289 289 289 289 289 289 289 289 288 288 288 287 286 285 284 284 285 284 282 280 278 277 275 274 274 273 272 271 272 273 274 274 274 274
258 260 260 261 263 265 265 266 267 268 269 270 271 272 273 273 274 275 275 274 273 273 273 273 273 273 274 275 276 277 279 280 282 284 286 287 288 289 290 290 290 290 289 289 289 289 289 290 290 290 290 290 290 289 288 288 287 287 287 287 287 286 285 284 284 284 285 284 284 283 282 280 279 277 276 275 274 273 272 272 273 273 273 273 274
247 249 251 251 252 254 255 258 260 262 264 265 266 267 269 270 271 272 272 273 273 274 274 275 275 275 275 275 277 278 279 280 281 283 284 285 285 286 287 287 287 288 288 288 288 288 289 290 291 291 291 290 289 289 289 289 289 289 290 290 290 290 289 289 289 288 288 287 286 285 285 283 282 280 278 275 274 274 273 272 271 273 275 274 273
242 243 245 247 248 249 250 252 253 255 257 258 259 259 260 260 261 261 262 265 268 270 271 272 273 273 273 274 274 275 276 276 277 278 279 281 282 283 284 285 286 287 287 288 288 289 290 291 291 292 292 292 292 292 292 292 293 294 294 293 293 293 292 292 292 291 291 291 290 288 286 284 282 280 277 274 272 271 271 270 268 269 271 270 267
241 241 243 245 247 249 250 249 247 248 248 248 248 249 249 249 250 252 255 259 262 264 265 264 264 265 265 266 267 268 269 271 273 275 277 279 282 283 284 285 286 286 288 290 291 293 295 295 296 297 297 297 297 296 295 295 295 296 296 296 296 294 292 291 291 291 291 291 290 289 288 287 284 281 278 274 271 268 268 266 263 261 263 265 265
250 250 250 250 250 248 246 242 239 237 236 236 237 238 240 243 246 249 253 256 257 259 261 259 258 258 258 258 259 261 264 267 270 274 277 279 281 282 284 286 289 293 295 297 298 299 300 300 302 303 303 302 301 299 297 297 296 296 297 298 296 294 293 291 291 291 291 292 292 292 291 289 285 282 278 275 271 269 269 269 266 262 260 261 264
268 265 265 265 263 259 248 239 236 236 235 235 238 241 244 248 252 254 257 259 260 262 264 261 259 259 260 260 261 263 268 273 276 279 280 282 284 287 291 295 298 300 301 302 302 303 303 304 305 305 304 303 302 300 299 298 297 297 298 297 296 296 295 295 295 296 296 296 296 295 292 290 287 283 279 275 271 269 271 271 268 263 259 259 261
284 276 270 266 266 266 258 243 239 245 250 251 254 259 263 268 272 272 268 264 264 265 266 266 263 261 259 263 270 278 283 285 285 287 289 291 294 297 299 302 304 305 305 307 309 309 308 308 308 307 306 305 304 303 302 300 299 299 299 298 298 299 300 301 302 302 301 300 299 297 296 293 290 286 283 279 274 271 270 266 260 254 252 251 251
279 274 271 268 266 267 266 257 247 247 254 259 263 269 276 281 285 285 282 278 275 275 274 273 271 270 270 274 280 287 290 292 293 295 298 300 302 305 307 309 311 313 314 315 315 313 311 310 309 308 307 306 305 304 304 304 303 302 301 301 302 304 306 306 306 304 303 302 300 299 299 300 299 296 290 283 276 271 267 261 253 249 247 245 243
268 268 268 268 269 270 273 273 268 263 265 270 274 278 282 286 289 289 287 285 283 282 283 282 282 284 287 291 294 296 296 298 299 302 305 308 309 311 314 316 318 318 317 316 314 312 311 310 308 307 306 306 308 309 310 310 309 307 304 305 308 311 311 311 310 310 309 308 307 308 313 318 317 309 295 282 270 260 254 248 244 245 247 247 247
268 272 271 269 271 273 273 274 275 276 279 283 284 287 289 290 291 290 289 288 288 287 288 289 290 293 296 299 302 303 302 303 306 307 308 309 310 312 314 315 315 314 313 312 310 309 308 306 306 307 309 312 315 317 319 319 316 312 308 309 313 317 319 320 322 322 322 324 327 330 331 330 325 317 306 296 285 271 261 254 250 247 247 249 251
259 273 274 271 271 273 273 273 275 278 281 285 288 292 294 294 293 292 290 289 289 290 290 291 293 295 298 301 303 304 304 305 305 305 305 306 306 307 308 309 309 309 309 309 307 306 304 305 308 313 318 322 324 324 325 324 323 318 314 312 314 319 323 325 329 333 336 340 340 335 330 326 321 317 315 312 304 292 282 273 265 258 255 257 259
250 265 273 275 276 276 277 275 273 276 282 286 289 292 293 293 294 292 289 288 288 288 289 289 290 292 295 297 298 299 299 299 298 298 299 300 301 302 302 304 305 306 306 305 303 303 306 312 320 324 327 329 330 331 333 334 333 330 324 316 312 311 313 317 322 328 331 332 330 325 322 318 313 311 312 312 307 299 291 286 283 279 275 272 270
244 258 273 280 282 281 280 278 275 276 281 285 287 288 289 290 291 289 286 286 286 284 281 282 284 285 287 288 289 289 289 290 290 291 293 296 299 301 302 303 303 302 302 301 302 307 314 321 325 326 326 327 329 334 339 341 342 340 337 331 324 316 311 311 315 319 322 323 322 322 323 321 318 316 312 307 300 296 292 289 287 284 278 270 267
239 244 260 277 283 283 281 279 279 280 280 279 280 282 284 286 284 279 278 278 277 275 274 274 274 274 274 275 277 279 279 281 283 285 291 296 299 301 302 301 298 295 298 302 305 306 305 305 306 305 307 312 318 325 332 336 338 339 341 340 338 334 329 326 324 325 326 324 321 322 325 328 325 319 310 303 299 297 297 294 291 287 272 251 238
243 244 251 267 279 285 281 276 277 279 276 273 273 273 273 272 269 268 270 270 268 266 265 262 258 259 262 266 270 271 273 275 279 284 290 295 295 296 299 301 300 298 299 301 298 291 287 289 294 298 303 311 318 323 327 330 332 335 337 337 336 336 336 335 332 329 327 326 323 322 324 325 322 315 309 307 308 308 307 304 297 272 227 206 201
248 253 258 266 277 284 283 276 273 271 269 268 267 263 261 266 269 270 270 268 261 252 245 242 244 249 255 261 264 267 271 275 279 284 287 287 286 288 294 300 305 305 297 292 289 286 288 293 300 306 313 319 323 325 327 329 331 333 335 334 334 334 335 335 334 330 327 326 324 322 322 324 323 320 318 321 323 320 312 267 173 174 177 176 174
246 253 262 270 279 286 286 279 271 266 264 263 258 253 257 269 275 275 272 265 254 241 232 233 237 239 245 254 261 266 271 275 277 279 281 280 279 285 294 302 309 310 302 295 292 291 295 302 307 312 317 321 324 326 328 330 333 335 335 335 335 336 338 341 344 345 342 337 332 332 338 347 350 351 360 6 4 353 159 152 156 157 149 140 144
260 263 267 273 280 287 289 283 274 268 266 259 250 252 264 272 274 273 269 260 249 239 230 230 231 234 241 252 260 265 269 272 272 274 276 278 280 287 297 304 308 310 309 306 302 301 303 309 312 315 317 319 322 324 327 331 336 339 339 339 340 344 352 1 7 10 11 10 8 11 19 29 38 47 61 64 59 60 76 93 104 113 112 107 132
271 272 273 273 276 283 289 284 264 253 259 255 247 254 272 276 271 269 266 257 246 237 229 225 226 230 237 246 251 255 261 267 272 278 284 287 290 295 300 302 304 305 305 304 304 304 307 310 312 313 315 318 320 323 329 335 341 345 348 350 353 358 9 19 24 28 30 30 31 33 36 38 42 48 51 52 52 51 50 48 47 42 31 18 356
266 268 272 272 273 280 286 279 250 237 253 256 248 255 275 278 269 262 260 251 240 231 222 218 221 229 236 243 250 258 270 285 297 304 307 306 305 306 305 303 302 300 299 299 301 303 306 309 312 313 316 319 322 327 333 341 348 353 358 2 6 12 19 25 28 32 36 36 32 28 25 23 26 32 33 33 38 42 41 40 39 33 24 17 9
Height
3102 3104 3106 3107 3109 3110 3113 3116 3119 3122 3124 3125 3128 3131 3132 3134 3136 3137 3139 3140 3141 3142 3143 3144 3145 3145 3146 3146 3146 3146 3146 3147 3147 3147 3147 3147 3148 3148 3149 3150 3151 3151 3152 3153 3154 3155 3156 3157 3157 3157 3159 3160 3161 3162 3162 3163 3163 3164 3164 3165 3165 3166 3167 3169 3168 3168 3169 3169 3170 3170 3171 3171 3172 3172 3173 3173 3173 3174 3174 3175 3175 3174 3174 3174 3174
3100 3102 3104 3106 3108 3110 3113 3116 3119 3121 3123 3125 3127 3130 3132 3133 3135 3136 3137 3139 3140 3141 3142 3143 3143 3144 3144 3145 3145 3145 3146 3146 3146 3146 3146 3146 3147 3148 3148 3149 3150 3150 3151 3152 3153 3153 3154 3155 3156 3156 3158 3159 3160 3160 3161 3161 3162 3163 3163 3163 3164 3165 3167 3169 3168 3167 3168 3169 3169 3170 3170 3171 3171 3172 3172 3173 3173 3174 3174 3174 3174 3174 3174 3173 3173
3098 3099 3102 3104 3107 3109 3112 3115 3119 3121 3123 3125 3127 3129 3131 3132 3133 3135 3136 3137 3138 3140 3140 3141 3142 3143 3143 3144 3144 3144 3144 3144 3145 3145 3145 3146 3146 3147 3148 3148 3149 3149 3150 3151 3151 3152 3153 3154 3155 3156 3157 3158 3158 3158 3159 3160 3161 3163 3163 3162 3163 3165 3167 3169 3169 3167 3168 3168 3168 3169 3170 3171 3171 3171 3172 3172 3173 3173 3173 3173 3173 3173 3172 3172 3172
3095 3096 3099 3102 3105 3109 3111 3115 3118 3120 3122 3124 3126 3128 3129 3130 3132 3133 3135 3136 3137 3138 3139 3140 3141 3142 3142 3143 3143 3143 3143 3143 3144 3144 3144 3145 3145 3146 3147 3147 3148 3148 3149 3150 3150 3151 3152 3153 3154 3155 3156 3157 3157 3157 3158 3158 3160 3162 3162 3161 3162 3164 3165 3166 3167 3167 3167 3167 3168 3169 3169 3170 3171 3171 3171 3171 3172 3172 3171 3171 3171 3171 3170 3169 3169
3093 3094 3096 3099 3103 3107 3110 3113 3116 3118 3120 3122 3124 3126 3127 3128 3130 3132 3133 3134 3136 3137 3138 3139 3140 3141 3141 3141 3141 3142 3142 3142 3143 3143 3143 3144 3144 3145 3145 3146 3146 3147 3148 3148 3148 3150 3151 3152 3153 3154 3155 3156 3156 3156 3157 3158 3160 3161 3161 3161 3162 3163 3164 3165 3166 3166 3167 3167 3167 3168 3169 3169 3169 3170 3170 3170 3170 3170 3170 3169 3169 3168 3168 3167 3166
3090 3092 3095 3098 3101 3104 3108 3111 3113 3116 3118 3120 3122 3124 3125 3126 3128 3130 3131 3133 3134 3136 3137 3138 3138 3139 3139 3140 3140 3140 3141 3141 3141 3141 3142 3143 3143 3144 3144 3145 3146 3146 3147 3147 3147 3149 3150 3150 3151 3152 3153 3154 3155 3156 3156 3158 3159 3160 3160 3161 3161 3162 3163 3164 3164 3165 3166 3167 3167 3168 3169 3168 3168 3168 3169 3169 3168 3168 3168 3167 3167 3166 3166 3165 3164
3089 3092 3095 3098 3101 3104 3107 3109 3111 3113 3117 3119 3121 3122 3123 3125 3126 3128 3130 3131 3133 3134 3135 3136 3136 3137 3138 3138 3138 3139 3139 3139 3139 3140 3141 3142 3142 3143 3143 3144 3145 3146 3146 3146 3146 3148 3148 3149 3150 3151 3152 3153 3154 3155 3156 3157 3158 3159 3159 3160 3162 3162 3162 3163 3163 3163 3164 3166 3166 3166 3166 3166 3167 3167 3168 3168 3168 3167 3167 3166 3166 3165 3164 3164 3162
3087 3090 3093 3096 3100 3103 3105 3107 3110 3113 3115 3117 3119 3120 3122 3124 3125 3126 3128 3130 3131 3132 3133 3134 3134 3135 3136 3137 3137 3137 3137 3137 3138 3138 3139 3140 3141 3141 3142 3143 3144 3145 3145 3145 3145 3146 3148 3149 3150 3151 3151 3152 3153 3154 3155 3156 3157 3158 3159 3160 3161 3161 3161 3161 3162 3163 3163 3164 3164 3165 3165 3165 3165 3166 3166 3167 3166 3166 3165 3165 3165 3164 3163 3161 3160
3085 3087 3090 3094 3098 3101 3103 3106 3109 3111 3113 3115 3117 3119 3120 3122 3123 3124 3126 3128 3129 3130 3131 3131 3132 3133 3134 3135 3136 3136 3136 3136 3136 3136 3137 3138 3139 3140 3141 3142 3143 3144 3144 3144 3145 3146 3147 3148 3149 3149 3150 3151 3152 3153 3154 3155 3156 3157 3157 3158 3159 3159 3159 3160 3161 3161 3162 3162 3163 3163 3164 3164 3164 3164 3164 3164 3165 3165 3164 3163 3162 3162 3162 3160 3158
3082 3085 3088 3091 3095 3099 3102 3104 3106 3108 3110 3113 3115 3117 3118 3120 3121 3122 3124 3125 3126 3127 3129 3130 3130 3131 3132 3133 3134 3134 3135 3135 3135 3135 3135 3136 3137 3138 3139 3140 3141 3142 3142 3143 3144 3145 3146 3147 3147 3147 3149 3150 3151 3152 3153 3154 3154 3155 3156 3156 3157 3157 3158 3159 3159 3160 3160 3160 3161 3162 3162 3162 3162 3162 3162 3162 3162 3162 3162 3161 3160 3160 3159 3159 3158
3081 3084 3087 3090 3093 3096 3099 3101 3103 3105 3107 3110 3112 3114 3116 3117 3119 3120 3121 3123 3124 3125 3127 3128 3128 3129 3130 3131 3132 3133 3133 3134 3134 3134 3134 3135 3136 3137 3137 3138 3139 3139 3140 3142 3142 3143 3144 3145 3145 3146 3147 3148 3149 3150 3151 3152 3153 3153 3154 3154 3155 3156 3156 3157 3158 3158 3159 3159 3159 3160 3160 3160 3160 3160 3160 3160 3160 3160 3159 3159 3159 3158 3157 3156 3156
3079 3082 3085 3088 3090 3092 3095 3098 3100 3102 3104 3107 3109 3111 3113 3114 3116 3117 3119 3120 3122 3123 3124 3125 3126 3127 3128 3130 3131 3131 3132 3132 3132 3132 3133 3134 3134 3135 3136 3137 3137 3138 3139 3140 3141 3142 3142 3143 3143 3144 3145 3146 3147 3148 3149 3150 3151 3152 3152 3153 3153 3154 3155 3155 3156 3156 3157 3157 3158 3158 3158 3159 3159 3159 3158 3158 3158 3157 3157 3156 3156 3155 3155 3153 3153
3078 3080 3083 3085 3087 3089 3092 3095 3097 3099 3101 3104 3106 3108 3110 3112 3113 3115 3117 3118 3119 3120 3121 3122 3123 3125 3127 3128 3129 3130 3130 3131 3131 3131 3131 3132 3133 3134 3135 3135 3136 3137 3138 3139 3139 3140 3140 3141 3142 3142 3143 3144 3145 3146 3147 3148 3149 3150 3150 3151 3151 3152 3152 3153 3154 3155 3155 3155 3156 3156 3156 3156 3156 3156 3156 3155 3156 3155 3154 3154 3153 3152 3151 3150 3149
3076 3079 3081 3084 3086 3088 3091 3093 3095 3097 3099 3101 3103 3105 3107 3109 3111 3112 3114 3115 3116 3117 3118 3119 3121 3123 3124 3126 3127 3128 3128 3129 3129 3129 3130 3131 3132 3133 3133 3133 3134 3135 3136 3137 3138 3138 3139 3140 3140 3141 3142 3142 3142 3144 3145 3145 3147 3147 3148 3149 3149 3150 3150 3151 3152 3153 3153 3153 3153 3154 3154 3154 3153 3153 3152 3152 3152 3152 3152 3151 3150 3149 3147 3146 3146
3076 3078 3080 3082 3084 3087 3090 3091 3093 3096 3097 3099 3101 3102 3104 3106 3107 3109 3111 3113 3114 3115 3116 3117 3118 3120 3122 3123 3124 3125 3126 3126 3127 3128 3128 3129 3130 3131 3131 3132 3133 3134 3134 3136 3136 3137 3138 3138 3139 3139 3140 3139 3140 3141 3143 3143 3144 3145 3146 3146 3147 3147 3148 3149 3149 3150 3150 3151 3151 3151 3151 3151 3150 3150 3150 3149 3148 3149 3149 3148 3146 3145 3144 3142 3141
3075 3077 3079 3081 3083 3085 3087 3089 3091 3094 3095 3097 3098 3100 3102 3104 3104 3106 3109 3110 3111 3112 3113 3114 3116 3117 3119 3120 3122 3123 3123 3124 3125 3126 3127 3128 3129 3129 3130 3131 3132 3132 3133 3134 3135 3135 3136 3137 3137 3137 3137 3137 3139 3140 3141 3142 3142 3143 3143 3144 3144 3145 3145 3146 3146 3147 3147 3147 3147 3147 3147 3147 3147 3147 3147 3146 3144 3144 3144 3143 3141 3141 3139 3137 3136
3075 3076 3077 3079 3080 3083 3085 3086 3088 3091 3093 3094 3096 3097 3100 3101 3102 3104 3106 3107 3108 3109 3110 3111 3113 3114 3115 3117 3119 3120 3121 3122 3123 3124 3125 3126 3127 3128 3128 3129 3130 3131 3132 3132 3133 3133 3134 3135 3135 3135 3135 3136 3138 3138 3139 3139 3140 3140 3141 3141 3141 3141 3142 3142 3142 3142 3142 3143 3142 3142 3142 3142 3142 3142 3142 3142 3141 3140 3139 3137 3136 3136 3134 3133 3131
3074 3075 3076 3078 3079 3081 3083 3085 3087 3089 3090 3092 3094 3096 3097 3099 3101 3103 3104 3105 3106 3107 3107 3109 3110 3111 3113 3114 3116 3118 3119 3120 3121 3122 3123 3124 3125 3126 3126 3127 3128 3129 3130 3130 3131 3131 3131 3132 3132 3132 3133 3134 3135 3136 3136 3137 3137 3137 3138 3138 3138 3138 3138 3138 3136 3136 3137 3138 3138 3137 3137 3137 3136 3136 3136 3136 3136 3135 3134 3132 3131 3130 3128 3128 3127
3073 3075 3076 3078 3079 3080 3082 3084 3086 3087 3089 3091 3093 3095 3096 3098 3100 3101 3102 3103 3104 3104 3105 3106 3107 3109 3110 3112 3113 3115 3116 3117 3118 3119 3120 3121 3122 3124 3124 3125 3126 3127 3127 3128 3128 3128 3128 3129 3130 3129 3130 3132 3132 3133 3134 3134 3134 3134 3134 3134 3134 3133 3133 3133 3132 3131 3132 3133 3134 3133 3132 3131 3131 3130 3130 3130 3130 3130 3129 3128 3127 3125 3123 3123 3122
3074 3075 3077 3078 3079 3080 3082 3084 3086 3087 3089 3090 3092 3094 3095 3097 3098 3099 3100 3102 3102 3103 3104 3105 3105 3107 3108 3109 3111 3112 3113 3114 3115 3117 3118 3119 3120 3121 3121 3122 3123 3124 3125 3125 3126 3125 3125 3125 3126 3127 3127 3129 3129 3129 3130 3130 3130 3130 3130 3129 3129 3128 3127 3127 3127 3126 3125 3126 3126 3126 3126 3126 3126 3125 3124 3124 3124 3124 3123 3123 3123 3122 3120 3119 3117
3075 3076 3077 3078 3080 3081 3082 3084 3085 3087 3088 3089 3091 3092 3094 3095 3097 3098 3099 3101 3101 3102 3103 3103 3104 3105 3106 3107 3108 3110 3111 3112 3113 3114 3115 3116 3117 3118 3119 3119 3120 3121 3121 3122 3123 3123 3121 3120 3123 3126 3126 3125 3125 3125 3125 3125 3125 3125 3125 3124 3123 3122 3122 3121 3121 3120 3120 3119 3119 3119 3119 3119 3119 3119 3119 3118 3117 3118 3118 3118 3117 3117 3116 3113 3110
3076 3077 3078 3079 3080 3081 3083 3084 3086 3087 3088 3089 3090 3091 3093 3094 3096 3097 3098 3099 3100 3101 3101 3102 3102 3103 3104 3105 3106 3107 3109 3110 3110 3111 3112 3113 3114 3114 3116 3116 3116 3117 3118 3119 3119 3119 3117 3116 3118 3122 3123 3121 3120 3120 3120 3120 3120 3120 3120 3119 3118 3117 3116 3115 3115 3114 3114 3113 3112 3112 3111 3112 3112 3113 3113 3112 3111 3111 3111 3111 3111 3111 3109 3107 3105
3077 3078 3079 3080 3081 3082 3083 3085 3086 3087 3088 3089 3089 3090 3092 3093 3095 3096 3097 3098 3098 3099 3100 3100 3101 3102 3102 3103 3104 3105 3106 3107 3107 3108 3109 3109 3110 3111 3112 3113 3113 3114 3115 3115 3115 3115 3114 3113 3114 3116 3117 3116 3116 3115 3115 3115 3115 3115 3114 3114 3113 3112 3111 3110 3110 3109 3108 3107 3106 3105 3106 3106 3106 3106 3106 3105 3104 3103 3102 3102 3103 3103 3102 3101 3099
3079 3079 3080 3081 3082 3083 3083 3084 3086 3087 3088 3088 3089 3090 3091 3092 3094 3095 3096 3097 3097 3098 3098 3099 3100 3100 3101 3101 3102 3102 3103 3104 3104 3105 3106 3106 3107 3108 3108 3109 3109 3110 3110 3110 3110 3110 3111 3111 3110 3111 3111 3110 3110 3110 3110 3110 3109 3109 3109 3108 3108 3107 3106 3105 3105 3104 3103 3102 3100 3099 3100 3100 3099 3099 3098 3097 3097 3096 3095 3094 3094 3095 3095 3094 3093
3080 3080 3081 3081 3082 3083 3084 3084 3085 3086 3087 3088 3089 3090 3091 3091 3092 3093 3094 3095 3096 3096 3096 3097 3097 3098 3098 3099 3099 3100 3100 3101 3102 3102 3103 3104 3104 3104 3105 3105 3105 3106 3105 3105 3105 3106 3106 3107 3106 3106 3105 3105 3105 3105 3104 3104 3104 3103 3103 3102 3101 3101 3100 3099 3099 3098 3096 3095 3094 3093 3093 3092 3091 3091 3091 3090 3089 3089 3087 3086 3087 3087 3086 3087 3087
3080 3080 3081 3081 3082 3083 3083 3084 3085 3086 3086 3087 3088 3089 3089 3090 3091 3092 3093 3093 3094 3094 3095 3095 3095 3095 3096 3096 3097 3097 3097 3098 3099 3100 3101 3101 3101 3101 3101 3102 3102 3102 3102 3101 3101 3102 3102 3102 3101 3101 3100 3100 3099 3099 3099 3098 3098 3097 3097 3096 3095 3094 3093 3092 3091 3090 3089 3088 3088 3087 3086 3085 3084 3084 3083 3082 3082 3082 3080 3079 3079 3079 3078 3079 3079
3080 3080 3081 3081 3082 3082 3083 3083 3084 3085 3085 3086 3087 3087 3088 3089 3090 3090 3091 3091 3092 3092 3092 3093 3093 3093 3093 3094 3094 3094 3094 3094 3096 3098 3098 3098 3098 3098 3098 3098 3098 3098 3098 3098 3098 3098 3097 3097 3097 3096 3095 3095 3094 3094 3093 3092 3092 3091 3090 3089 3088 3087 3086 3085 3084 3083 3082 3081 3081 3080 3079 3079 3078 3077 3076 3075 3076 3076 3073 3072 3072 3072 3071 3072 3072
3080 3080 3081 3081 3082 3082 3083 3083 3083 3084 3084 3085 3085 3086 3087 3087 3088 3088 3089 3089 3090 3090 3090 3090 3091 3091 3091 3091 3092 3091 3090 3092 3093 3094 3093 3094 3094 3094 3094 3094 3094 3094 3094 3093 3093 3093 3092 3092 3092 3091 3090 3089 3088 3088 3087 3086 3085 3084 3083 3082 3081 3080 3079 3078 3077 3075 3074 3074 3074 3073 3073 3073 3072 3071 3070 3069 3069 3069 3067 3065 3066 3066 3066 3066 3065
3079 3079 3080 3080 3081 3081 3082 3082 3082 3083 3083 3084 3084 3084 3085 3085 3086 3086 3087 3087 3087 3087 3087 3088 3088 3088 3088 3088 3089 3088 3087 3088 3089 3089 3089 3090 3090 3090 3090 3090 3089 3089 3089 3089 3088 3087 3087 3086 3086 3085 3084 3083 3082 3082 3081 3080 3079 3078 3077 3076 3075 3074 3073 3072 3070 3069 3068 3067 3067 3067 3066 3066 3065 3064 3064 3063 3063 3062 3061 3060 3060 3060 3061 3060 3060
3077 3078 3078 3079 3079 3079 3080 3080 3081 3081 3081 3082 3082 3082 3083 3083 3083 3083 3084 3084 3084 3084 3084 3084 3085 3085 3084 3085 3085 3084 3084 3084 3085 3085 3085 3085 3085 3085 3085 3085 3084 3084 3084 3083 3083 3082 3082 3081 3080 3079 3079 3078 3077 3077 3076 3075 3074 3073 3072 3071 3069 3068 3067 3066 3065 3064 3062 3061 3061 3061 3060 3059 3059 3058 3058 3057 3057 3056 3055 3054 3055 3055 3055 3054 3054
3077 3077 3077 3077 3077 3078 3078 3078 3079 3079 3079 3080 3080 3080 3080 3080 3081 3081 3081 3081 3081 3081 3081 3081 3081 3081 3081 3081 3081 3081 3081 3081 3081 3081 3081 3081 3081 3081 3080 3080 3080 3080 3079 3079 3078 3078 3077 3077 3076 3075 3075 3074 3073 3072 3071 3070 3069 3068 3067 3066 3065 3064 3063 3062 3061 3059 3058 3057 3056 3056 3055 3054 3053 3052 3052 3051 3050 3050 3049 3049 3049 3049 3049 3048 3048
3076 3076 3076 3076 3076 3076 3077 3077 3077 3077 3078 3078 3078 3078 3078 3078 3078 3078 3078 3078 3078 3078 3078 3078 3078 3078 3078 3078 3078 3078 3078 3078 3077 3077 3077 3077 3077 3077 3077 3077 3077 3076 3076 3076 3075 3074 3074 3073 3072 3071 3071 3070 3069 3068 3067 3066 3065 3064 3063 3062 3061 3060 3059 3058 3056 3055 3054 3053 3052 3051 3050 3049 3048 3047 3047 3046 3045 3044 3044 3044 3044 3043 3043 3043 3043
3075 3075 3075 3075 3075 3075 3075 3076 3076 3076 3076 3076 3076 3076 3076 3076 3076 3076 3076 3076 3076 3076 3075 3075 3075 3075 3075 3075 3075 3075 3075 3075 3075 3075 3075 3075 3075 3075 3075 3075 3074 3074 3074 3073 3073 3072 3071 3070 3069 3068 3067 3066 3065 3064 3063 3062 3061 3060 3059 3057 3056 3055 3054 3053 3052 3051 3049 3048 3047 3046 3045 3044 3043 3042 3042 3041 3040 3039 3038 3039 3039 3039 3039 3039 3039
3073 3073 3073 3073 3074 3074 3074 3074 3075 3075 3074 3074 3075 3074 3074 3075 3074 3074 3074 3074 3074 3074 3073 3073 3073 3073 3073 3073 3073 3073 3073 3074 3074 3074 3074 3074 3074 3073 3073 3073 3072 3072 3071 3071 3070 3069 3068 3067 3066 3065 3064 3062 3061 3060 3059 3057 3056 3055 3054 3053 3052 3051 3050 3048 3047 3046 3045 3044 3043 3041 3040 3039 3038 3037 3037 3036 3035 3034 3034 3033 3034 3034 3035 3035 3035
3071 3071 3071 3071 3071 3071 3072 3072 3072 3072 3072 3072 3072 3072 3072 3072 3073 3072 3072 3072 3072 3072 3072 3071 3071 3071 3071 3071 3071 3071 3072 3072 3072 3072 3072 3072 3072 3071 3071 3070 3070 3069 3069 3068 3067 3066 3065 3064 3062 3061 3060 3059 3057 3056 3055 3054 3052 3051 3050 3049 3048 3047 3046 3044 3043 3042 3040 3039 3038 3036 3035 3034 3033 3032 3031 3031 3030 3029 3029 3029 3029 3030 3031 3031 3031
3067 3067 3068 3068 3069 3069 3069 3070 3070 3070 3070 3070 3070 3070 3070 3070 3070 3071 3071 3070 3070 3070 3070 3069 3069 3069 3069 3070 3070 3070 3070 3070 3070 3070 3070 3070 3069 3069 3068 3068 3067 3066 3066 3065 3063 3062 3061 3060 3059 3058 3057 3055 3054 3053 3052 3050 3049 3048 3047 3045 3044 3043 3042 3040 3039 3037 3036 3034 3033 3032 3030 3029 3028 3027 3027 3026 3025 3025 3025 3024 3025 3026 3027 3027 3027
3064 3064 3064 3065 3065 3066 3067 3067 3067 3067 3068 3068 3068 3068 3068 3068 3068 3068 3068 3068 3068 3068 3068 3067 3067 3067 3068 3068 3068 3068 3068 3068 3068 3068 3068 3067 3067 3067 3066 3065 3065 3064 3062 3062 3061 3060 3058 3057 3056 3055 3054 3053 3051 3050 3049 3048 3046 3045 3043 3042 3040 3039 3038 3036 3035 3033 3032 3030 3029 3028 3026 3025 3024 3023 3022 3022 3021 3021 3021 3021 3021 3022 3023 3023 3023
3062 3062 3062 3063 3063 3064 3064 3065 3065 3065 3065 3065 3065 3065 3065 3065 3065 3066 3066 3066 3066 3066 3066 3066 3066 3066 3066 3066 3066 3066 3066 3066 3066 3065 3065 3065 3064 3064 3063 3063 3062 3061 3060 3059 3058 3057 3056 3055 3054 3053 3051 3050 3049 3047 3046 3045 3043 3042 3040 3039 3037 3036 3034 3033 3031 3030 3028 3027 3026 3025 3023 3022 3021 3020 3019 3018 3018 3018 3018 3018 3018 3018 3019 3019 3020
3061 3061 3061 3061 3062 3062 3063 3063 3064 3064 3064 3063 3063 3063 3063 3063 3063 3063 3063 3063 3063 3064 3064 3064 3064 3064 3065 3065 3065 3064 3064 3064 3063 3063 3062 3062 3061 3061 3060 3060 3059 3058 3057 3056 3055 3054 3053 3052 3051 3050 3049 3048 3046 3045 3044 3042 3041 3039 3038 3036 3035 3033 3031 3030 3029 3027 3026 3025 3023 3022 3021 3019 3018 3017 3016 3015 3015 3015 3015 3015 3015 3015 3016 3016 3017
3060 3060 3060 3060 3060 3061 3061 3061 3061 3061 3061 3061 3061 3061 3061 3061 3061 3061 3061 3061 3061 3061 3061 3061 3062 3062 3062 3062 3062 3062 3062 3061 3061 3060 3060 3059 3058 3058 3057 3056 3056 3055 3054 3053 3053 3052 3051 3050 3049 3048 3047 3046 3044 3043 3042 3040 3038 3037 3035 3034 3032 3031 3029 3028 3027 3025 3024 3022 3021 3020 3019 3017 3016 3015 3014 3013 3013 3013 3013 3013 3013 3014 3014 3015 3015
3059 3059 3059 3059 3059 3059 3059 3059 3059 3059 3059 3059 3059 3059 3059 3059 3058 3058 3058 3058 3058 3058 3058 3058 3059 3059 3059 3059 3059 3059 3058 3058 3058 3057 3057 3057 3056 3056 3055 3055 3054 3053 3053 3052 3051 3050 3049 3048 3047 3046 3045 3044 3043 3041 3040 3038 3037 3035 3034 3032 3031 3029 3028 3027 3025 3024 3023 3021 3020 3019 3018 3017 3016 3015 3014 3014 3013 3013 3013 3012 3012 3013 3013 3013 3014
3058 3058 3058 3057 3058 3058 3058 3058 3058 3058 3057 3057 3057 3057 3057 3057 3057 3057 3056 3056 3056 3056 3056 3056 3056 3056 3056 3056 3056 3056 3056 3056 3056 3055 3055 3055 3055 3054 3054 3054 3053 3052 3051 3050 3049 3048 3048 3047 3046 3045 3044 3042 3041 3040 3038 3037 3036 3034 3033 3031 3030 3028 3027 3026 3024 3023 3022 3021 3020 3019 3018 3017 3016 3016 3015 3014 3013 3013 3012 3012 3012 3012 3012 3012 3012
3057 3057 3057 3056 3056 3056 3056 3056 3056 3056 3056 3056 3055 3055 3055 3055 3055 3055 3055 3055 3055 3055 3055 3054 3054 3054 3055 3055 3055 3055 3055 3055 3054 3054 3054 3054 3054 3053 3053 3052 3051 3051 3050 3049 3048 3047 3046 3045 3044 3044 3042 3041 3040 3039 3038 3036 3035 3033 3032 3030 3029 3027 3026 3025 3024 3023 3021 3020 3019 3019 3018 3017 3016 3015 3015 3014 3013 3013 3012 3011 3011 3011 3011 3011 3011
3056 3056 3056 3055 3055 3055 3055 3055 3054 3055 3055 3054 3054 3054 3054 3054 3054 3054 3053 3053 3053 3054 3053 3053 3053 3054 3054 3054 3054 3054 3054 3054 3053 3053 3053 3053 3052 3052 3051 3051 3050 3049 3048 3048 3047 3046 3045 3044 3043 3043 3042 3041 3040 3039 3037 3036 3034 3033 3031 3030 3029 3027 3025 3024 3023 3022 3020 3019 3018 3017 3017 3016 3015 3015 3014 3013 3013 3012 3012 3011 3010 3010 3010 3010 3010
3055 3055 3055 3055 3054 3054 3054 3053 3053 3053 3053 3053 3053 3053 3053 3053 3053 3053 3053 3053 3053 3053 3053 3053 3053 3053 3053 3053 3053 3053 3053 3052 3052 3052 3052 3051 3051 3050 3050 3049 3049 3048 3047 3046 3045 3045 3044 3044 3043 3042 3041 3040 3039 3038 3036 3035 3034 3032 3031 3029 3028 3026 3025 3024 3022 3021 3020 3018 3017 3016 3015 3015 3014 3014 3014 3013 3012 3011 3011 3010 3010 3010 3010 3010 3010
3054 3054 3054 3054 3053 3053 3053 3052 3052 3052 3052 3052 3052 3052 3052 3052 3052 3052 3052 3052 3052 3052 3052 3052 3051 3051 3051 3052 3052 3051 3051 3051 3051 3051 3051 3050 3050 3049 3049 3048 3047 3047 3046 3045 3045 3044 3044 3043 3042 3041 3040 3039 3038 3036 3035 3034 3032 3031 3029 3028 3027 3025 3024 3023 3022 3021 3019 3018 3017 3015 3015 3014 3014 3013 3013 3012 3011 3011 3010 3010 3010 3010 3010 3010 3011
3053 3053 3053 3052 3052 3052 3051 3051 3051 3051 3051 3051 3051 3051 3051 3051 3051 3051 3051 3051 3050 3050 3050 3050 3050 3050 3050 3050 3050 3050 3050 3050 3050 3049 3049 3049 3049 3048 3048 3047 3047 3046 3045 3045 3044 3043 3043 3042 3041 3040 3039 3038 3036 3035 3034 3032 3031 3029 3028 3027 3026 3024 3023 3022 3021 3020 3018 3017 3016 3015 3014 3013 3013 3012 3012 3011 3011 3011 3011 3011 3011 3011 3011 3012 3012
3052 3052 3052 3051 3051 3051 3050 3050 3050 3050 3049 3049 3050 3050 3050 3050 3050 3050 3049 3049 3049 3049 3049 3049 3049 3049 3049 3049 3049 3049 3049 3048 3048 3048 3048 3048 3047 3047 3047 3046 3046 3045 3044 3044 3043 3042 3042 3041 3040 3039 3037 3036 3035 3034 3033 3031 3030 3029 3027 3026 3025 3024 3022 3021 3020 3019 3018 3017 3015 3015 3014 3013 3013 3012 3012 3012 3012 3012 3012 3012 3012 3012 3012 3012 3013
3051 3051 3050 3050 3050 3050 3049 3049 3049 3049 3048 3048 3049 3049 3049 3049 3049 3048 3048 3048 3048 3047 3047 3048 3048 3048 3048 3048 3048 3048 3047 3047 3047 3047 3047 3046 3046 3046 3046 3045 3045 3044 3043 3043 3042 3041 3040 3039 3038 3037 3036 3035 3034 3033 3032 3031 3029 3028 3027 3025 3024 3023 3022 3020 3019 3018 3017 3016 3016 3015 3015 3014 3014 3013 3013 3013 3013 3013 3013 3013 3013 3013 3013 3013 3013
3049 3049 3049 3049 3049 3049 3048 3048 3048 3048 3047 3047 3047 3048 3048 3048 3048 3047 3047 3047 3047 3046 3046 3047 3047 3047 3047 3047 3047 3047 3046 3046 3046 3046 3045 3045 3045 3045 3044 3044 3043 3043 3042 3041 3041 3040 3039 3038 3037 3037 3035 3034 3033 3032 3031 3030 3029 3027 3026 3025 3024 3023 3022 3021 3020 3019 3018 3017 3017 3017 3016 3016 3015 3015 3015 3014 3014 3014 3014 3013 3013 3013 3013 3013 3014
3048 3048 3048 3048 3048 3048 3047 3047 3047 3047 3047 3046 3046 3046 3046 3046 3046 3046 3046 3046 3046 3045 3045 3046 3046 3046 3046 3046 3046 3046 3045 3045 3045 3044 3044 3044 3043 3043 3043 3042 3042 3041 3041 3040 3039 3039 3038 3037 3036 3035 3034 3033 3032 3031 3030 3029 3028 3027 3026 3025 3024 3023 3022 3021 3020 3020 3019 3018 3018 3018 3018 3017 3017 3016 3016 3015 3015 3014 3014 3014 3014 3014 3014 3014 3014